• Join FlightAware (Why Join?)
  • Login
  • US Flag 
10:54PM EDT


 

Airport Tracker/Info


-or-


 

Live Flight TrackerFlight Track Log ✈ DAL3698 ✈ 20-May-2013 ✈ KLAN - KMSP

Flight Track Log - Related Links

Times and Time Zones

All times are in EDT time to prevent confusion due to time zone crossing. See the DAL3698 flight status page for this flight to view local times or setup timezone preferences in your user account.

Time Position Orientation Groundspeed Altitude Reporting Facility
EDT Latitude Longitude Course Direction KTS MPH feet Rate Location/Type
07:28AM 42.8467 -84.4958 279° West 217 250 4,300  Level Minneapolis Center
07:29AM 42.8558 -84.5803 278° West 258 297 5,500 1,800 Climbing Minneapolis Center
07:30AM 42.8492 -84.6825 265° West 271 312 7,800 2,280 Climbing Chicago Center
07:31AM 42.7624 -85.2608 276° West  Level FlightAware Approximate
07:31AM 42.8414 -84.7836 264° West 271 312 10,000  Level Chicago Center
07:32AM 42.7757 -85.4062 278° West  Level FlightAware Approximate
07:32AM 42.8358 -84.8931 266° West 286 329 11,500  Level Chicago Center
07:33AM 42.7914 -85.5512 279° West  Level FlightAware Approximate
07:33AM 42.8667 -85.0061 290° West 315 362 12,700  Level Chicago Center
07:34AM 42.8983 -85.1300 289° West 339 390 13,800 1,260 Climbing Chicago Center
07:35AM 42.9403 -85.2806 291° West 353 406 15,300 1,320 Climbing Chicago Center
07:36AM 42.9747 -85.4086 290° West 358 412 16,600 1,200 Climbing Chicago Center
07:37AM 43.0092 -85.5381 290° West 363 418 17,800 1,080 Climbing Chicago Center
07:38AM 43.0444 -85.6711 290° West 370 426 18,900 1,020 Climbing Chicago Center
07:39AM 43.0800 -85.8033 290° West 375 432 20,000 960 Climbing Chicago Center
07:40AM 43.1150 -85.9361 290° West 379 436 20,900 900 Climbing Chicago Center
07:41AM 43.1564 -86.0958 290° West 383 441 21,900 720 Climbing Chicago Center
07:42AM 43.1911 -86.2339 289° West 387 445 22,400 480 Climbing Chicago Center
07:43AM 43.2267 -86.3717 290° West 387 445 22,900 480 Climbing Chicago Center
07:44AM 43.2636 -86.5136 290° West 399 459 23,400 480 Climbing Chicago Center
07:45AM 43.2997 -86.6600 289° West 404 465 23,900 240 Climbing Chicago Center
07:46AM 43.3367 -86.8044 289° West 406 467 24,000  Climbing Chicago Center
07:47AM 43.3811 -86.9847 289° West 417 480 24,000  Level Chicago Center
07:48AM 43.4208 -87.1372 290° West 423 487 24,000  Level Chicago Center
07:49AM 43.4589 -87.2933 289° West 430 495 24,000  Level Chicago Center
07:50AM 43.4950 -87.4414 289° West 429 494 24,000  Level Chicago Center
07:51AM 43.5406 -87.6269 289° West 437 503 24,000  Level Chicago Center
07:52AM 43.5786 -87.7833 289° West 432 497 24,000  Level Chicago Center
07:53AM 43.6164 -87.9417 288° West 435 501 24,000  Level Chicago Center
07:54AM 43.6467 -88.0736 288° West 435 501 24,000  Level Minneapolis Center
07:55AM 43.6844 -88.2300 289° West 433 498 24,000  Level Minneapolis Center
07:56AM 43.7219 -88.3886 288° West 437 503 24,000  Level Minneapolis Center
07:57AM 43.7594 -88.5472 288° West 438 504 24,000  Level Minneapolis Center
07:58AM 43.8019 -88.7336 288° West 438 504 24,000  Level Minneapolis Center
07:59AM 43.8394 -88.8928 288° West 437 503 24,000  Level Minneapolis Center
08:00AM 43.8753 -89.0517 287° West 436 502 24,000  Level Minneapolis Center
08:01AM 43.9094 -89.2111 287° West 432 497 24,000  Level Minneapolis Center
08:02AM 43.9472 -89.3719 288° West 437 503 24,000  Level Minneapolis Center
08:03AM 43.9828 -89.5322 287° West 436 502 24,000  Level Minneapolis Center
08:04AM 44.0267 -89.6906 291° West 438 504 24,000  Level Minneapolis Center
08:05AM 44.0806 -89.8456 296° West 444 511 24,000  Level Minneapolis Center
08:06AM 44.1328 -90.0014 295° West 446 513 24,000  Level Minneapolis Center
08:07AM 44.1869 -90.1583 296° West 448 516 24,000  Level Minneapolis Center
08:08AM 44.2397 -90.3153 295° West 446 513 24,000  Level Minneapolis Center
08:09AM 44.3011 -90.4994 295° West 448 516 24,000  Level Minneapolis Center
08:10AM 44.3550 -90.6569 296° West 449 517 24,000  Level Minneapolis Center
08:11AM 44.4067 -90.8164 294° West 450 518 24,000  Level Minneapolis Center
08:12AM 44.4533 -90.9625 294° West 451 519 24,000  Level Minneapolis Center
08:13AM 44.5047 -91.1203 295° West 448 516 24,000 -240 Level Minneapolis Center
08:14AM 44.5553 -91.2786 294° West 448 516 23,600 -1,440 Descending Minneapolis Center
08:15AM 44.6164 -91.4692 294° West 448 516 21,100 -2,100 Descending Minneapolis Center
08:16AM 44.6558 -91.5944 294° West 445 512 19,400 -2,220 Descending Minneapolis Center
08:17AM 44.7144 -91.7783 294° West 435 501 16,600 -2,340 Descending Minneapolis Center
08:18AM 44.7631 -91.9303 294° West 429 494 14,700 -1,860 Descending Minneapolis Center
08:20AM 44.8075 -92.0744 294° West 408 470 12,900 -1,740 Descending Minneapolis Center
08:21AM 44.8522 -92.2167 294° West 399 459 11,200 -1,380 Descending Minneapolis Center
08:22AM 44.8778 -92.3544 285° West 369 425 10,100 -600 Descending Minneapolis Center
08:23AM 44.8533 -92.4864 255° West 348 400 10,000 -60 Descending Minneapolis Center
08:24AM 44.8294 -92.6156 255° West 339 390 10,000  Level Minneapolis Center
08:25AM 44.8006 -92.7675 255° West 340 391 10,000  Level Minneapolis Center
08:26AM 44.7764 -92.8925 255° West 334 384 10,000  Level Minneapolis Center
08:27AM 44.7822 -93.0258 274° West 348 400 10,000 -60 Level Minneapolis Center
08:28AM 44.7953 -93.1519 278° West 332 382 9,900 -480 Descending Minneapolis Center
08:29AM 44.8069 -93.2572 279° West 286 329 9,100 -1,020 Descending Minneapolis Center
08:30AM 44.8364 -93.3817 288° West 290 334 7,900 -1,260 Descending Minneapolis Center
08:31AM 44.8739 -93.4778 299° West 283 326 6,600 -1,320 Descending Minneapolis Center
08:32AM 44.9228 -93.5631 309° West 280 322 5,200 -720 Descending Minneapolis Center
08:33AM 44.9878 -93.5428 12° North 260 299 5,000 -480 Descending Minneapolis Center
08:34AM 44.9819 -93.4444 95° East 222 255 4,200 -900 Descending Minneapolis Center
08:35AM 44.9519 -93.3833 125° Southeast 186 214 3,200 -1,020 Descending Minneapolis Center